This demonstration page uses our WeatherBlox Daily Observations layout. Learn more.

Left ArrowRight Arrow

36.17497, -115.13722

Hourly Observations for March 5, 2015

Temp ( °F °C ) Dew Point ( °F °C ) Humidity (%) Winds ( mph kmh ) Pressure ( in mb ) Visibility ( mi km ) Precip ( " mm )
12:53 am 00:53 Clear 44 6.7 26 -3.3 49 49 W 6 9 30.35 1028 10 16 0.00 0.00
1:53 am 01:53 Clear 41 5 27 -2.8 57 57 NW 5 7 30.36 1028 10 16 0.00 0.00
2:53 am 02:53 Clear 41 5 26 -3.3 55 55 NNW 5 7 30.36 1028 10 16 0.00 0.00
3:53 am 03:53 Clear 40 4.4 26 -3.3 58 58 WNW 5 7 30.37 1028 10 16 0.00 0.00
4:53 am 04:53 Clear 40 4.4 25 -3.9 55 55 NW 8 13 30.39 1029 10 16 0.00 0.00
5:53 am 05:53 Clear 40 4.4 25 -3.9 55 55 NNW 3 6 30.41 1030 10 16 0.00 0.00
6:53 am 06:53 Sunny 41 5 26 -3.3 55 55 Calm 30.44 1031 10 16 0.00 0.00
7:53 am 07:53 Sunny 45 7.2 25 -3.9 46 46 SE 3 6 30.45 1031 10 16 0.00 0.00
8:53 am 08:53 Sunny 49 9.4 23 -5 36 36 E 5 7 30.47 1032 10 16 0.00 0.00
9:53 am 09:53 Sunny 52 11.1 22 -5.6 31 31 Calm 30.46 1032 10 16 0.00 0.00
10:53 am 10:53 Sunny 55 13 23 -5 28 28 E 5 7 30.39 1029 10 16 0.00 0.00
11:53 am 11:53 Sunny 57 13.9 21 -6.1 25 25 Calm 30.42 1030 10 16 0.00 0.00
12:53 pm 12:53 Sunny 60 15.6 20 -6.7 21 21 NNE 5 7 30.39 1029 10 16 0.00 0.00
1:53 pm 13:53 Sunny 61 16.1 18 -7.8 19 19 VRB 3 6 30.37 1028 10 16 0.00 0.00
2:53 pm 14:53 Sunny 62 16.7 20 -6.7 20 20 Calm 30.35 1028 10 16 0.00 0.00
3:53 pm 15:53 Sunny 63 17.2 21 -6.1 20 20 SE 3 6 30.35 1028 10 16 0.00 0.00
4:53 pm 16:53 Sunny 62 16.7 23 -5 22 22 SE 5 7 30.34 1028 10 16 0.00 0.00
5:53 pm 17:53 Clear 60 15.6 25 -3.9 26 26 SE 6 9 30.35 1028 10 16 0.00 0.00
6:53 pm 18:53 Clear 57 13.9 24 -4.4 28 28 ESE 6 9 30.36 1028 10 16 0.00 0.00
7:53 pm 19:53 Clear 57 13.9 23 -5 27 27 Calm 30.36 1028 10 16 0.00 0.00
8:53 pm 20:53 Clear 54 12.2 28 -2.2 37 37 W 6 9 30.37 1028 10 16 0.00 0.00
9:53 pm 21:53 Clear 51 10.6 31 -0.6 46 46 NNW 3 6 30.37 1029 10 16 0.00 0.00
10:53 pm 22:53 Clear 50 10 30 -1.1 46 46 WNW 5 7 30.36 1028 10 16 0.00 0.00
11:53 pm 23:53 Clear 48 8.9 30 -1.1 50 50 NW 3 6 30.35 1028 10 16 0.00 0.00

Powered by AerisWeather